Regional Weather Roundup
Issued by NWS Sioux Falls, SD

Home | Current Version | Previous Version | Text Only | Print | Product List | Glossary Off
Versions: 1 2 3 4 5 6 7 8 9 10 11 12 13 14 15 16 17 18 19 20 21 22 23 24 25 26 27 28 29 30 31 32 33 34 35 36 37 38 39 40 41 42 43 44 45 46 47 48 49 50

000
ASUS43 KFSD 280402
RWRFSD

WEATHER ROUNDUP FOR SE SOUTH DAKOTA/SW MINNESOTA/NW IOWA
NATIONAL WEATHER SERVICE SIOUX FALLS SD
1100 PM CDT FRI MAY 27 2016

NOTE: "FAIR" INDICATES FEW OR NO CLOUDS BELOW 12,000 FEET WITH NO
SIGNIFICANT WEATHER AND OR OBSTRUCTIONS TO VISIBILITY.


SDZ038>040-050-052>070-280500-
SOUTHEAST SOUTH DAKOTA

CITY           SKY/WX    TMP DP  RH WIND       PRES   REMARKS
BROOKINGS      PTCLDY    62  57  83 N7        29.77R
CHAMBERLAIN    NOT AVBL
HURON          PTCLDY    60  58  92 N3        29.78R
MADISON        CLOUDY    63  63 100 N9        29.78R
MITCHELL       CLOUDY    64  61  90 N5        29.77R
SIOUX FALLS    MOCLDY    62  56  80 CALM      29.75R
WINNER         FAIR      58  54  86 NW6       29.82R
YANKTON        CLOUDY    66  59  77 NW9       29.72S
$$

MNZ071-072-080-081-089-090-097-098-280500-
SOUTHWEST MINNESOTA

CITY           SKY/WX    TMP DP  RH WIND       PRES   REMARKS
FAIRMONT       CLOUDY    66  61  82 E6        29.76R
JACKSON        MOCLDY    64  59  82 E6        29.77R
LUVERNE        CLOUDY    68  54  60 E7        29.76R
MARSHALL       CLOUDY    66  59  78 E5        29.76R
MONTEVIDEO     CLOUDY    63  59  88 E10       29.79R
PIPESTONE      PTCLDY    64  57  77 CALM      29.77R
REDWOOD FALLS  CLOUDY    63  60  90 NE5       29.75S
TRACY          PTCLDY    63  59  85 SE5       29.75F
WINDOM         MOCLDY    64  59  82 E6        29.77R
WORTHINGTON    CLOUDY    65  60  84 NE7       29.77R
$$

IAZ001>003-012>014-020>022-031-032-NEZ013-014-SDZ071-280500-
NORTHWEST IOWA

CITY           SKY/WX    TMP DP  RH WIND       PRES   REMARKS
ESTHERVILLE    CLOUDY    66  61  84 E8        29.75R
SIOUX CITY     TSTM      67  62  84 SW9       29.74R
SPENCER        MOCLDY    67  58  72 NE8       29.74R
STORM LAKE     CLOUDY    68  61  77 S8        29.76R
$$

ABBREVIATIONS USED IN REMARKS
   TC - TEMPERATURE IN CELSIUS
  WCI - WIND CHILL INDEX
   HX - HEAT INDEX
  VSB - VISIBILITY





USA.gov is the U.S. government's official web portal to all federal, state and local government web resources and services.